This is the latest recevied weather packets stored in our database for station/object W5GMO. If no packets are shown the sender has not sent any weather packets the latest 10 day(s).
| Time | Temp. | Humidity | Pressure | Rain* | Wind** | Luminosity | Snow |
|---|---|---|---|---|---|---|---|
| 1788271625 | 30.56° C | 1% | 1017.2 hPa | 0 mm | - | 272 W/m² | - |
| 1788271325 | 31.67° C | 1% | 1017.3 hPa | 0 mm | - | 291 W/m² | - |
| 1788271020 | 30.56° C | 1% | 1017.1 hPa | 0 mm | - | 321 W/m² | - |
| 1788270720 | 30.56° C | 1% | 1017.2 hPa | 0 mm | - | 280 W/m² | - |
| 1788270416 | 30.56° C | 1% | 1017.2 hPa | 0 mm | - | 301 W/m² | - |
| 1788270111 | 30.56° C | 1% | 1017.2 hPa | 0 mm | - | 537 W/m² | - |
| 1788269824 | 30.56° C | 1% | 1017.2 hPa | 0 mm | - | 415 W/m² | - |
| 1788269509 | 30° C | 1% | 1017.3 hPa | 0 mm | - | 419 W/m² | - |
| 1788269203 | 30° C | 1% | 1017.4 hPa | 0 mm | - | 407 W/m² | - |
| 1788268897 | 30° C | 1% | 1017.4 hPa | 0 mm | - | 393 W/m² | - |
| 1788268597 | 30° C | 1% | 1017.4 hPa | 0 mm | - | 381 W/m² | - |
| 1788268292 | 29.44° C | 1% | 1017.3 hPa | 0 mm | - | 235 W/m² | - |
| 1788267987 | 29.44° C | 1% | 1017.5 hPa | 0 mm | - | 333 W/m² | - |
| 1788267685 | 29.44° C | 1% | 1017.5 hPa | 0 mm | - | 310 W/m² | - |
| 1788267384 | 29.44° C | 1% | 1017.4 hPa | 0 mm | - | 293 W/m² | - |
| 1788267080 | 29.44° C | 1% | 1017.4 hPa | 0 mm | - | 284 W/m² | - |
| 1788266780 | 29.44° C | 1% | 1017.5 hPa | 0 mm | - | 259 W/m² | - |
| 1788266475 | 29.44° C | 1% | 1017.4 hPa | 0 mm | - | 249 W/m² | - |
| 1788266174 | 28.33° C | 1% | 1017.7 hPa | 0 mm | - | 270 W/m² | - |
| 1788265874 | 27.78° C | 1% | 1017.8 hPa | 0 mm | - | 276 W/m² | - |
| 1788265573 | 27.22° C | 1% | 1017.6 hPa | 0 mm | - | 154 W/m² | - |
| 1788265273 | 27.22° C | 1% | 1017.7 hPa | 0 mm | - | 236 W/m² | - |
| 1788264968 | 27.22° C | 1% | 1017.7 hPa | 0 mm | - | 137 W/m² | - |
| 1788264663 | 27.22° C | 1% | 1017.5 hPa | 0 mm | - | 100 W/m² | - |
| 1788264362 | 26.67° C | 1% | 1017.6 hPa | 0 mm | - | 90 W/m² | - |
* Rain latest hour (hover to see other rain measurements)
** Current wind speed in m/s (hover to see current wind gust speed)